Torna al catalogo

STARLINK-5288

AttivoComunicazioniVLEO
NORAD 55307·PAYLOAD·🇺🇸 United States

Lanciato Jan 19, 2023 da Vandenberg Space Force Base

Loading…

Prossimi Passaggi (prossime 24 ore)

TLE

AggiornatoSource: CelesTrak SupGP

Epoca: Sep 15, 2026, 01:55 UTC

1 55307C 23010AQ  26258.08034722 -.00044286  00000+0 -37105-2 0  2586
2 55307  69.9992 247.0904 0003890 267.7507 220.9772 14.98359711    14

Traccia STARLINK-5288 in tempo reale con AllMySat

Download on the App Store